Berlin, NH

2:47 AM EDT on May 24, 2018 (GMT -0400)
Berlin Municipal

Weather History for KBML - January, 2014

Change the Weather History Date:

Friday, January 10, 2014

  Actual Average Record
Temperature  
Mean Temperature 7 °F -  
Max Temperature 23 °F 21 °F 46 °F (2016)
Min Temperature -9 °F 1 °F -24 °F (2004)
Degree Days  
Heating Degree Days 58    
Moisture  
Dew Point 5 °F    
Average Humidity 77    
Maximum Humidity 84    
Minimum Humidity 71    
Precipitation  
Precipitation 0.00 in - - ()
Sea Level Pressure  
Sea Level Pressure 30.38 in    
Wind  
Wind Speed 0 mph (North)    
Max Wind Speed 0 mph    
Max Gust Speed -    
Visibility 10 miles    
Events Snow    
Averages and records for this station are not official NWS values.
T = Trace of Precipitation, MM = Missing Value Source: NWS Daily Summary

Daily Weather History Graph

Daily Weather History Graph

Search for Another Location

Airport or City:

Astronomy

Jan. 10, 2014 Rise Set
Actual Time 7:20 AM EST 4:24 PM EST
Civil Twilight 6:47 AM EST 4:57 PM EST
Nautical Twilight 6:11 AM EST 5:33 PM EST
Astronomical Twilight 5:35 AM EST 6:08 PM EST
Moon 12:30 PM EST (1/10) 2:20 AM EST (1/10)
Length of Visible Light 10h 10m
Length of Day
9h 04m
Waxing Gibbous, 75% of the Moon is Illuminated
Jan 10
Waxing Gibbous
Jan 15
Full
Jan 24
Last Quarter
Jan 30
New
Feb 6
First Quarter

Hourly Weather History & Observations

Time (EST) Temp. Dew Point Humidity Pressure Visibility Wind Dir Wind Speed Gust Speed Precip Events Conditions
12:52 AM -9.0 °F -15.0 °F 75% 30.56 in 10.0 mi Calm Calm - N/A   Clear
1:52 AM -9.9 °F -16.1 °F 74% 30.58 in 10.0 mi Calm Calm - N/A   Clear
2:52 AM -9.0 °F -16.1 °F 71% 30.56 in 10.0 mi Calm Calm - N/A   Clear
3:52 AM -9.0 °F -13.0 °F 83% 30.53 in 10.0 mi Calm Calm - N/A   Clear
4:52 AM -7.1 °F -13.0 °F 75% 30.51 in 10.0 mi Calm Calm - N/A   Clear
5:52 AM -9.0 °F -14.1 °F 79% 30.51 in 10.0 mi Calm Calm - N/A   Clear
6:52 AM -7.1 °F -13.0 °F 75% 30.50 in 10.0 mi Calm Calm - N/A   Partly Cloudy
7:52 AM -7.1 °F -11.0 °F 83% 30.50 in 10.0 mi Calm Calm - N/A   Clear
8:52 AM -2.9 °F -8.0 °F 79% 30.49 in 10.0 mi Calm Calm - N/A   Mostly Cloudy
9:52 AM 1.0 °F -2.9 °F 83% 30.48 in 10.0 mi Calm Calm - N/A   Overcast
10:52 AM 5.0 °F 1.0 °F 84% 30.45 in 10.0 mi Calm Calm - N/A   Overcast
11:52 AM 10.0 °F 3.0 °F 73% 30.42 in 10.0 mi Calm Calm - N/A   Overcast
12:36 PM 12.0 °F 5.0 °F 73% 30.30 in 2.0 mi Calm Calm - 0.00 in Snow Light Snow
12:52 PM 12.9 °F 6.1 °F 74% 30.39 in 3.0 mi Calm Calm - 0.00 in Snow Light Snow
1:52 PM 18.0 °F 10.0 °F 71% 30.36 in 10.0 mi Calm Calm - 0.00 in   Overcast
2:52 PM 21.9 °F 14.0 °F 72% 30.35 in 10.0 mi Calm Calm - N/A   Overcast
3:28 PM 23.0 °F 15.1 °F 72% 30.26 in 10.0 mi Calm Calm - N/A   Overcast
3:52 PM 23.0 °F 16.0 °F 74% 30.35 in 10.0 mi Calm Calm - N/A   Overcast
4:52 PM 21.9 °F 16.0 °F 78% 30.34 in 10.0 mi Calm Calm - N/A   Overcast
5:34 PM 23.0 °F 17.1 °F 78% 30.25 in 10.0 mi Calm Calm - N/A   Overcast
5:52 PM 23.0 °F 17.1 °F 78% 30.34 in 10.0 mi Calm Calm - N/A   Overcast
6:52 PM 21.9 °F 16.0 °F 78% 30.33 in 10.0 mi Calm Calm - N/A   Overcast
7:44 PM 21.9 °F 17.1 °F 82% 30.24 in 10.0 mi Calm Calm - N/A   Overcast
7:52 PM 21.9 °F 17.1 °F 82% 30.33 in 10.0 mi Calm Calm - N/A   Overcast
8:52 PM 21.9 °F 17.1 °F 82% 30.32 in 10.0 mi Calm Calm - N/A   Overcast
9:41 PM 23.0 °F 18.0 °F 81% 30.23 in 10.0 mi Calm Calm - N/A   Overcast
9:52 PM 23.0 °F 18.0 °F 81% 30.30 in 10.0 mi Calm Calm - N/A   Overcast
10:31 PM 23.0 °F 16.0 °F 74% 30.22 in 10.0 mi Calm Calm - N/A   Overcast
10:52 PM 23.0 °F 17.1 °F 78% 30.29 in 10.0 mi Calm Calm - N/A   Overcast
11:52 PM 23.0 °F 16.0 °F 74% 30.25 in 9.0 mi Calm Calm - N/A   Overcast